This is the latest recevied weather packets stored in our database for station/object IU0KRR-10. If no packets are shown the sender has not sent any weather packets the latest 10 day(s).
| Time | Temp. | Humidity | Pressure | Rain* | Wind** | Luminosity | Snow |
|---|---|---|---|---|---|---|---|
| 1787660828 | 21.11° C | 86% | 872.5 hPa | - | - | - | - |
| 1787659927 | 20.56° C | 89% | 872.6 hPa | - | - | - | - |
| 1787659061 | 19.44° C | 96% | 872.5 hPa | - | - | - | - |
| 1787659025 | 19.44° C | 96% | 872.5 hPa | - | - | - | - |
| 1787658124 | 17.78° C | 100% | 872.5 hPa | - | - | - | - |
| 1787657224 | 17.22° C | 87% | 872.4 hPa | - | - | - | - |
| 1787656324 | 17.22° C | 93% | 872.1 hPa | - | - | - | - |
| 1787655423 | 17.78° C | 100% | 872.2 hPa | - | - | - | - |
| 1787654521 | 18.33° C | 100% | 871.9 hPa | - | - | - | - |
| 1787653621 | 18.33° C | 99% | 872 hPa | - | - | - | - |
| 1787652720 | 18.89° C | 98% | 871.1 hPa | - | - | - | - |
| 1787651819 | 19.44° C | 99% | 871.1 hPa | - | - | - | - |
| 1787650919 | 20° C | 96% | 871.3 hPa | - | - | - | - |
| 1787650018 | 20° C | 93% | 869.9 hPa | - | - | - | - |
| 1787649118 | 20° C | 92% | 870.1 hPa | - | - | - | - |
| 1787648216 | 19.44° C | 90% | 869.9 hPa | - | - | - | - |
| 1787647315 | 20° C | 89% | 870 hPa | - | - | - | - |
| 1787646414 | 19.44° C | 89% | 870.5 hPa | - | - | - | - |
| 1787645558 | 19.44° C | 87% | 870.7 hPa | - | - | - | - |
| 1787645513 | 19.44° C | 87% | 870.7 hPa | - | - | - | - |
| 1787644612 | 19.44° C | 87% | 870.8 hPa | - | - | - | - |
| 1787643712 | 19.44° C | 86% | 870.8 hPa | - | - | - | - |
| 1787642811 | 19.44° C | 85% | 870.9 hPa | - | - | - | - |
| 1787641945 | 19.44° C | 83% | 871.2 hPa | - | - | - | - |
| 1787641911 | 19.44° C | 83% | 871.2 hPa | - | - | - | - |
* Rain since midnight (hover to see other rain measurements)
** Current wind speed in m/s (hover to see current wind gust speed)